Time,TemperatureF,DewpointF,PressureIn,WindDirection,WindDirectionDegrees,WindSpeedMPH,WindSpeedGustMPH,Humidity,HourlyPrecipIn,Conditions,Clouds,dailyrainin,SolarRadiationWatts/m^2,SoftwareType,DateUTC
2013-02-11 00:02:00,15.0,12.0,-100.00,SSE,159,2.0,3.0,88,0.00,,,0.00,0.000000,,2013-02-11 05:02:00,
2013-02-11 01:02:00,14.0,11.0,-100.00,South,178,2.0,3.0,87,0.00,,,0.00,0.000000,,2013-02-11 06:02:00,
2013-02-11 01:52:00,13.0,10.0,-100.00,South,171,3.0,3.0,87,0.00,,,0.00,0.000000,,2013-02-11 06:52:00,
2013-02-11 02:02:00,13.0,10.0,-100.00,South,171,3.0,3.0,87,0.00,,,0.00,0.000000,,2013-02-11 07:02:00,
2013-02-11 03:01:00,12.0,9.0,-100.00,South,174,2.0,3.0,86,-99.99,,,0.00,0.000000,,2013-02-11 08:01:00,
2013-02-11 04:02:00,12.0,9.0,-100.00,South,188,1.0,3.0,86,0.00,,,0.00,0.000000,,2013-02-11 09:02:00,
2013-02-11 04:52:00,13.0,10.0,-100.00,South,174,2.0,3.0,86,-99.99,,,0.00,,,2013-02-11 09:52:00,
2013-02-11 05:02:00,13.0,10.0,-100.00,South,174,2.0,3.0,86,-99.99,,,0.00,,,2013-02-11 10:02:00,
2013-02-11 06:02:00,13.0,10.0,-100.00,South,189,2.0,4.0,87,0.00,,,0.00,0.000000,,2013-02-11 11:02:00,
2013-02-11 06:11:00,13.0,10.0,-100.00,South,189,2.0,4.0,87,0.00,,,0.00,0.000000,,2013-02-11 11:11:00,
2013-02-11 06:22:00,13.0,10.0,-100.00,South,189,2.0,4.0,87,0.00,,,0.00,0.000000,,2013-02-11 11:22:00,
2013-02-11 07:03:00,16.0,13.0,-100.00,SE,128,1.0,6.0,89,0.00,,,0.00,1.000000,,2013-02-11 12:03:00,
2013-02-11 07:12:00,16.0,13.0,-100.00,SE,128,1.0,6.0,89,0.00,,,0.00,1.000000,,2013-02-11 12:12:00,
2013-02-11 07:22:00,16.0,13.0,-100.00,SE,128,1.0,6.0,89,0.00,,,0.00,1.000000,,2013-02-11 12:22:00,
2013-02-11 07:32:00,16.0,13.0,-100.00,SE,128,1.0,6.0,89,0.00,,,0.00,1.000000,,2013-02-11 12:32:00,
2013-02-11 08:02:00,24.0,22.0,-100.00,South,170,3.0,7.0,93,0.00,,,-99.99,23.000000,,2013-02-11 13:02:00,
2013-02-11 08:12:00,24.0,22.0,-100.00,South,170,3.0,7.0,93,0.00,,,-99.99,23.000000,,2013-02-11 13:12:00,
2013-02-11 08:22:00,24.0,22.0,-100.00,South,170,3.0,7.0,93,0.00,,,-99.99,23.000000,,2013-02-11 13:22:00,
2013-02-11 08:33:00,24.0,22.0,-100.00,South,170,3.0,7.0,93,0.00,,,-99.99,23.000000,,2013-02-11 13:33:00,
2013-02-11 09:02:00,32.0,31.0,-100.00,SSW,209,5.0,9.0,96,0.00,,,-99.99,77.000000,,2013-02-11 14:02:00,
2013-02-11 09:33:00,32.0,31.0,-100.00,SSW,209,5.0,9.0,96,0.00,,,-99.99,77.000000,,2013-02-11 14:33:00,
2013-02-11 10:02:00,34.0,33.0,-100.00,SW,217,6.0,12.0,95,0.01,,,0.01,133.000000,,2013-02-11 15:02:00,
2013-02-11 10:11:00,34.0,33.0,-100.00,SW,217,6.0,12.0,95,0.01,,,0.01,133.000000,,2013-02-11 15:11:00,
2013-02-11 10:22:00,34.0,33.0,-100.00,SW,217,6.0,12.0,95,0.01,,,0.01,133.000000,,2013-02-11 15:22:00,
2013-02-11 10:32:00,34.0,33.0,-100.00,SW,217,6.0,12.0,95,0.01,,,0.01,133.000000,,2013-02-11 15:32:00,
2013-02-11 11:02:00,33.0,31.0,-100.00,SSW,213,6.0,13.0,94,0.00,,,0.01,127.000000,,2013-02-11 16:02:00,
2013-02-11 11:12:00,33.0,31.0,-100.00,SSW,213,6.0,13.0,94,0.00,,,0.01,127.000000,,2013-02-11 16:12:00,
2013-02-11 11:22:00,33.0,31.0,-100.00,SSW,213,6.0,13.0,94,0.00,,,0.01,127.000000,,2013-02-11 16:22:00,
2013-02-11 11:32:00,33.0,31.0,-100.00,SSW,213,6.0,13.0,94,0.00,,,0.01,127.000000,,2013-02-11 16:32:00,
2013-02-11 12:02:00,37.0,32.0,-100.00,SW,216,7.0,14.0,83,0.00,,,0.01,108.000000,,2013-02-11 17:02:00,
2013-02-11 12:12:00,37.0,32.0,-100.00,SW,216,7.0,14.0,83,0.00,,,0.01,108.000000,,2013-02-11 17:12:00,
2013-02-11 12:22:00,37.0,32.0,-100.00,SW,216,7.0,14.0,83,0.00,,,0.01,108.000000,,2013-02-11 17:22:00,
2013-02-11 12:32:00,37.0,32.0,-100.00,SW,216,7.0,14.0,83,0.00,,,0.01,108.000000,,2013-02-11 17:32:00,
2013-02-11 13:02:00,37.0,34.0,-100.00,SSW,204,8.0,17.0,89,0.00,,,0.01,88.000000,,2013-02-11 18:02:00,
2013-02-11 13:11:00,37.0,34.0,-100.00,SSW,204,8.0,17.0,89,0.00,,,0.01,88.000000,,2013-02-11 18:11:00,
2013-02-11 13:22:00,37.0,34.0,-100.00,SSW,204,8.0,17.0,89,0.00,,,0.01,88.000000,,2013-02-11 18:22:00,
2013-02-11 13:32:00,37.0,34.0,-100.00,SSW,204,8.0,17.0,89,0.00,,,0.01,88.000000,,2013-02-11 18:32:00,
2013-02-11 14:02:00,37.0,35.0,-100.00,SSW,202,6.0,15.0,92,0.02,,,0.03,59.000000,,2013-02-11 19:02:00,
2013-02-11 14:12:00,37.0,35.0,-100.00,SSW,202,6.0,15.0,92,0.02,,,0.03,59.000000,,2013-02-11 19:12:00,
2013-02-11 14:22:00,37.0,35.0,-100.00,SSW,202,6.0,15.0,92,0.02,,,0.03,59.000000,,2013-02-11 19:22:00,
2013-02-11 14:32:00,37.0,35.0,-100.00,SSW,202,6.0,15.0,92,0.02,,,0.03,59.000000,,2013-02-11 19:32:00,
2013-02-11 15:02:00,37.0,35.0,-100.00,SSW,197,6.0,14.0,93,0.10,,,0.13,44.000000,,2013-02-11 20:02:00,
2013-02-11 15:12:00,37.0,35.0,-100.00,SSW,197,6.0,14.0,93,0.10,,,0.13,44.000000,,2013-02-11 20:12:00,
2013-02-11 15:22:00,37.0,35.0,-100.00,SSW,197,6.0,14.0,93,0.10,,,0.13,44.000000,,2013-02-11 20:22:00,
2013-02-11 15:32:00,37.0,35.0,-100.00,SSW,197,6.0,14.0,93,0.10,,,0.13,44.000000,,2013-02-11 20:32:00,
2013-02-11 16:02:00,38.0,36.0,-100.00,South,186,7.0,16.0,93,0.12,,,0.25,24.000000,,2013-02-11 21:02:00,
2013-02-11 16:12:00,38.0,36.0,-100.00,South,186,7.0,16.0,93,0.12,,,0.25,24.000000,,2013-02-11 21:12:00,
2013-02-11 16:22:00,38.0,36.0,-100.00,South,186,7.0,16.0,93,0.12,,,0.25,24.000000,,2013-02-11 21:22:00,
2013-02-11 16:32:00,38.0,36.0,-100.00,South,186,7.0,16.0,93,0.12,,,0.25,24.000000,,2013-02-11 21:32:00,
2013-02-11 17:02:00,38.0,37.0,-100.00,South,169,9.0,20.0,95,0.09,,,0.34,19.000000,,2013-02-11 22:02:00,
2013-02-11 17:12:00,38.0,37.0,-100.00,South,169,9.0,20.0,95,0.09,,,0.34,19.000000,,2013-02-11 22:12:00,
2013-02-11 17:22:00,38.0,37.0,-100.00,South,169,9.0,20.0,95,0.09,,,0.34,19.000000,,2013-02-11 22:22:00,
2013-02-11 17:32:00,38.0,37.0,-100.00,South,169,9.0,20.0,95,0.09,,,0.34,19.000000,,2013-02-11 22:32:00,
2013-02-11 18:02:00,40.0,39.0,-100.00,South,179,7.0,16.0,96,0.14,,,0.48,1.000000,,2013-02-11 23:02:00,
2013-02-11 18:12:00,40.0,39.0,-100.00,South,179,7.0,16.0,96,0.14,,,0.48,1.000000,,2013-02-11 23:12:00,
2013-02-11 18:22:00,40.0,39.0,-100.00,South,179,7.0,16.0,96,0.14,,,0.48,1.000000,,2013-02-11 23:22:00,
2013-02-11 18:32:00,40.0,39.0,-100.00,South,179,7.0,16.0,96,0.14,,,0.48,1.000000,,2013-02-11 23:32:00,
2013-02-11 18:53:00,42.0,-99.9,-100.00,SSW,209,7.0,-999.0,-999,0.03,,,0.51,,,2013-02-11 23:53:00,
2013-02-11 19:02:00,42.0,-99.9,-100.00,SSW,209,7.0,-999.0,-999,0.03,,,0.51,,,2013-02-12 00:02:00,
2013-02-11 19:12:00,42.0,-99.9,-100.00,SSW,209,7.0,-999.0,-999,0.03,,,0.51,,,2013-02-12 00:12:00,
2013-02-11 19:22:00,42.0,-99.9,-100.00,SSW,209,7.0,-999.0,-999,0.03,,,0.51,,,2013-02-12 00:22:00,
2013-02-11 19:32:00,42.0,-99.9,-100.00,SSW,209,7.0,-999.0,-999,0.03,,,0.51,,,2013-02-12 00:32:00,
2013-02-11 20:02:00,43.0,42.0,-100.00,SSW,207,8.0,16.0,97,0.00,,,0.51,0.000000,,2013-02-12 01:02:00,
2013-02-11 20:12:00,43.0,42.0,-100.00,SSW,207,8.0,16.0,97,0.00,,,0.51,0.000000,,2013-02-12 01:12:00,
2013-02-11 20:22:00,43.0,42.0,-100.00,SSW,207,8.0,16.0,97,0.00,,,0.51,0.000000,,2013-02-12 01:22:00,
2013-02-11 20:32:00,43.0,42.0,-100.00,SSW,207,8.0,16.0,97,0.00,,,0.51,0.000000,,2013-02-12 01:32:00,
2013-02-11 21:02:00,43.0,42.0,-100.00,SW,214,8.0,17.0,98,0.00,,,0.51,0.000000,,2013-02-12 02:02:00,
2013-02-11 21:12:00,43.0,42.0,-100.00,SW,214,8.0,17.0,98,0.00,,,0.51,0.000000,,2013-02-12 02:12:00,
2013-02-11 21:22:00,43.0,42.0,-100.00,SW,214,8.0,17.0,98,0.00,,,0.51,0.000000,,2013-02-12 02:22:00,
2013-02-11 21:32:00,43.0,42.0,-100.00,SW,214,8.0,17.0,98,0.00,,,0.51,0.000000,,2013-02-12 02:32:00,
2013-02-11 22:02:00,41.0,40.0,-100.00,SW,227,4.0,11.0,98,0.00,,,0.51,0.000000,,2013-02-12 03:02:00,
2013-02-11 22:11:00,41.0,40.0,-100.00,SW,227,4.0,11.0,98,0.00,,,0.51,0.000000,,2013-02-12 03:11:00,
2013-02-11 22:21:00,41.0,40.0,-100.00,SW,227,4.0,11.0,98,0.00,,,0.51,0.000000,,2013-02-12 03:21:00,
2013-02-11 22:32:00,41.0,40.0,-100.00,SW,227,4.0,11.0,98,0.00,,,0.51,0.000000,,2013-02-12 03:32:00,
2013-02-11 23:01:00,39.0,38.0,-100.00,SW,234,2.0,5.0,98,0.00,,,0.51,0.000000,,2013-02-12 04:01:00,
2013-02-11 23:11:00,39.0,38.0,-100.00,SW,234,2.0,5.0,98,0.00,,,0.51,0.000000,,2013-02-12 04:11:00,
2013-02-11 23:21:00,39.0,38.0,-100.00,SW,234,2.0,5.0,98,0.00,,,0.51,0.000000,,2013-02-12 04:21:00,
2013-02-11 23:32:00,39.0,38.0,-100.00,SW,234,2.0,5.0,98,0.00,,,0.51,0.000000,,2013-02-12 04:32:00,